Location: Cargill Incorporated Elevator
(42.7294°N, 93.7333°W)
Time: 05:10:56
(UTC+00:00)

COSMO-SKYMED 1 - Pass Details

Date: 19 January 2026
Orbit: 577 x 579 km, 97.9° (Epoch: 15 February)

Event Time Altitude Azimuth Distance (km) Brightness Sun altitude
Rises 12:25:44 0° 190° (S) 2,783 6.0 -13.6°
Reaches altitude 10° 12:28:04 10° 201° (SSW) 1,889 5.0 -13.2°
Maximum altitude 12:31:42 30° 263° (W) 1,048 3.2 -12.5°
Enters shadow 12:35:08 11° 324° (NW) 1,823 4.5 -11.9°
